Date String (YYYY-MM-DD hh:mm:ss) UTC,Instrument flags,Ambient pressure (hPa),Sample flow (lpm),Bypass flow (lpm),Sample temperature (°C),Ambient temperature (°C),ASC tube jacket temperature (°C),LED temperature (°C),Box temperature (°C),Sample RH (%),Mass concentration (μg/m³),Mass concentration (μg/m³)
DateTimeUTC,F1_M11,P_M11,Q1_M11,Q2_M11,T1_M11,T2_M11,T3_M11,T4_M11,T5_M11,U1_M11,X0_M11,X2_M11
2021-08-11 23:00:00,FlowAlarm;OPCInstrumentWarning,0826.7,5.00,0.00,28.7,26.5,00.0,38.0,30.5,14.8,0041.09,0025.41
2021-08-11 23:01:00,FlowAlarm;OPCInstrumentWarning,0826.7,5.00,0.00,28.8,26.9,00.0,37.9,30.7,14.9,0041.67,0025.33
2021-08-11 23:02:00,FlowAlarm;OPCInstrumentWarning,0826.7,5.01,0.00,28.8,27.3,00.0,37.9,30.8,14.7,0041.47,0025.29
2021-08-11 23:03:00,FlowAlarm;OPCInstrumentWarning,0826.7,5.00,0.00,28.9,27.7,00.0,38.0,30.9,14.6,0040.50,0025.30
2021-08-11 23:04:00,FlowAlarm;OPCInstrumentWarning,0826.7,5.00,0.00,29.0,27.9,00.0,38.0,31.0,15.3,0040.86,0025.33
2021-08-11 23:05:00,FlowAlarm;OPCInstrumentWarning,0826.8,5.00,0.00,28.9,26.8,00.0,38.0,30.7,16.0,0041.55,0025.37
2021-08-11 23:06:00,FlowAlarm;OPCInstrumentWarning,0826.7,5.01,0.00,28.8,25.7,00.0,38.0,30.5,16.5,0041.58,0025.42
2021-08-11 23:07:00,FlowAlarm;OPCInstrumentWarning,0826.7,4.99,0.00,28.8,26.0,00.0,37.9,30.5,16.9,0041.36,0025.53
2021-08-11 23:08:00,FlowAlarm;OPCInstrumentWarning,0826.7,5.00,0.00,28.7,26.4,00.0,37.9,30.6,16.8,0041.63,0025.71
2021-08-11 23:09:00,FlowAlarm;OPCInstrumentWarning,0826.7,5.01,0.00,28.7,26.9,00.0,37.9,30.7,16.7,0041.69,0025.97
2021-08-11 23:10:00,FlowAlarm;OPCInstrumentWarning,0826.7,5.00,0.00,28.8,27.3,00.0,37.9,30.8,17.1,0041.85,0026.22
2021-08-11 23:11:00,FlowAlarm;OPCInstrumentWarning,0826.7,4.99,0.00,28.9,27.6,00.0,37.9,30.9,17.0,0043.22,0026.45
2021-08-11 23:12:00,FlowAlarm;OPCInstrumentWarning,0826.7,5.01,0.00,28.9,27.9,00.0,38.0,31.0,16.9,0042.77,0026.61
2021-08-11 23:13:00,FlowAlarm;OPCInstrumentWarning,0826.8,4.99,0.00,29.0,28.1,00.0,38.0,31.1,16.1,0042.65,0026.76
2021-08-11 23:14:00,FlowAlarm;OPCInstrumentWarning,0826.7,5.00,0.00,29.0,27.1,00.0,38.0,30.8,16.1,0044.15,0026.89
2021-08-11 23:15:00,FlowAlarm;OPCInstrumentWarning,0826.7,5.01,0.00,28.9,26.0,00.0,38.0,30.5,17.1,0044.59,0027.00
2021-08-11 23:16:00,FlowAlarm;OPCInstrumentWarning,0826.7,4.99,0.00,28.8,26.2,00.0,38.0,30.5,16.5,0044.77,0027.16
2021-08-11 23:17:00,FlowAlarm;OPCInstrumentWarning,0826.8,5.00,0.00,28.8,26.6,00.0,38.0,30.6,16.1,0044.60,0027.18
2021-08-11 23:18:00,FlowAlarm;OPCInstrumentWarning,0826.7,5.00,0.00,28.8,26.9,00.0,38.0,30.7,16.8,0044.01,0027.11
2021-08-11 23:19:00,FlowAlarm;OPCInstrumentWarning,0826.7,4.99,0.00,28.9,27.3,00.0,38.0,30.8,16.2,0043.62,0027.07
2021-08-11 23:20:00,FlowAlarm;OPCInstrumentWarning,0826.8,4.99,0.00,28.9,27.7,00.0,38.0,31.0,16.4,0043.67,0026.98
2021-08-11 23:21:00,FlowAlarm;OPCInstrumentWarning,0826.7,5.01,0.00,29.0,27.5,00.0,38.0,30.9,15.9,0043.10,0026.88
2021-08-11 23:22:00,FlowAlarm;OPCInstrumentWarning,0826.7,5.01,0.00,28.9,25.9,00.0,38.0,30.5,16.6,0042.25,0026.84
2021-08-11 23:23:00,FlowAlarm;OPCInstrumentWarning,0826.7,4.99,0.00,28.8,25.6,00.0,38.0,30.4,17.2,0043.26,0026.87
2021-08-11 23:24:00,FlowAlarm;OPCInstrumentWarning,0826.7,5.01,0.00,28.7,26.1,00.0,37.9,30.5,17.2,0044.09,0026.96
2021-08-11 23:25:00,FlowAlarm;OPCInstrumentWarning,0826.7,4.99,0.00,28.7,26.5,00.0,37.9,30.6,17.0,0042.79,0027.07
2021-08-11 23:26:00,FlowAlarm;OPCInstrumentWarning,0826.7,5.00,0.00,28.8,27.0,00.0,37.9,30.7,17.1,0042.15,0027.13
2021-08-11 23:27:00,FlowAlarm;OPCInstrumentWarning,0826.7,5.01,0.00,28.8,27.4,00.0,37.9,30.8,17.3,0043.34,0027.16
2021-08-11 23:28:00,FlowAlarm;OPCInstrumentWarning,0826.8,4.99,0.00,28.9,27.7,00.0,38.0,30.9,17.3,0043.53,0027.34
2021-08-11 23:29:00,FlowAlarm;OPCInstrumentWarning,0826.9,4.99,0.00,29.0,27.9,00.0,38.0,31.0,16.6,0044.21,0027.44
2021-08-11 23:30:00,FlowAlarm;OPCInstrumentWarning,0826.7,5.00,0.00,28.9,26.9,00.0,38.0,30.7,17.1,0045.08,0027.56
2021-08-11 23:31:00,FlowAlarm;OPCInstrumentWarning,0826.7,5.01,0.00,28.8,25.7,00.0,37.9,30.4,17.5,0045.62,0027.62
2021-08-11 23:32:00,FlowAlarm;OPCInstrumentWarning,0826.7,4.99,0.00,28.8,26.0,00.0,37.9,30.5,17.6,0047.73,0027.75
2021-08-11 23:33:00,FlowAlarm;OPCInstrumentWarning,0826.7,5.00,0.00,28.7,26.4,00.0,37.9,30.6,17.7,0047.50,0027.79
2021-08-11 23:34:00,FlowAlarm;OPCInstrumentWarning,0826.7,5.01,0.00,28.7,26.8,00.0,37.9,30.7,17.2,0046.73,0027.87
2021-08-11 23:35:00,FlowAlarm;OPCInstrumentWarning,0826.7,5.00,0.00,28.8,27.2,00.0,37.9,30.8,17.0,0047.50,0027.91
2021-08-11 23:36:00,FlowAlarm;OPCInstrumentWarning,0826.7,5.01,0.00,28.8,27.6,00.0,37.9,30.9,17.7,0049.93,0027.95
2021-08-11 23:37:00,FlowAlarm;OPCInstrumentWarning,0826.7,5.01,0.00,28.9,27.9,00.0,38.0,31.0,16.9,0050.30,0028.04
2021-08-11 23:38:00,FlowAlarm;OPCInstrumentWarning,0826.7,5.00,0.00,29.0,27.7,00.0,38.0,31.0,17.0,0048.15,0028.02
2021-08-11 23:39:00,FlowAlarm;OPCInstrumentWarning,0826.7,4.99,0.00,28.9,26.1,00.0,38.0,30.6,16.7,0048.58,0027.91
2021-08-11 23:40:00,FlowAlarm;OPCInstrumentWarning,0826.7,5.01,0.00,28.8,25.7,00.0,38.0,30.5,16.8,0048.65,0027.96
2021-08-11 23:41:00,FlowAlarm;OPCInstrumentWarning,0826.7,4.99,0.00,28.8,26.1,00.0,38.0,30.6,16.7,0048.45,0027.95
2021-08-11 23:42:00,FlowAlarm;OPCInstrumentWarning,0826.7,5.00,0.00,28.7,26.6,00.0,37.9,30.6,17.4,0048.55,0028.05
2021-08-11 23:43:00,FlowAlarm;OPCInstrumentWarning,0826.7,5.00,0.00,28.8,27.0,00.0,37.9,30.7,18.2,0046.83,0028.07
2021-08-11 23:44:00,FlowAlarm;OPCInstrumentWarning,0826.7,4.99,0.00,28.8,27.4,00.0,38.0,30.8,18.9,0047.34,0028.14
2021-08-11 23:45:00,FlowAlarm;OPCInstrumentWarning,0826.7,5.01,0.00,28.9,27.7,00.0,38.0,31.0,18.5,0048.57,0028.22
2021-08-11 23:46:00,FlowAlarm;OPCInstrumentWarning,0826.7,4.99,0.00,29.0,27.6,00.0,38.0,30.9,18.8,0047.32,0028.31
2021-08-11 23:47:00,FlowAlarm;OPCInstrumentWarning,0826.7,5.01,0.00,28.9,26.1,00.0,38.0,30.6,19.0,0045.41,0028.46
2021-08-11 23:48:00,FlowAlarm;OPCInstrumentWarning,0826.6,4.98,0.00,28.8,25.7,00.0,37.9,30.4,19.1,0045.58,0028.57
2021-08-11 23:49:00,FlowAlarm;OPCInstrumentWarning,0826.6,5.02,0.00,28.7,26.1,00.0,37.9,30.5,19.7,0046.79,0028.83
2021-08-11 23:50:00,FlowAlarm;OPCInstrumentWarning,0826.7,5.00,0.00,28.7,26.5,00.0,37.9,30.6,19.6,0047.17,0029.03
2021-08-11 23:51:00,FlowAlarm;OPCInstrumentWarning,0826.7,4.99,0.00,28.7,27.0,00.0,37.9,30.7,19.2,0048.07,0029.12
2021-08-11 23:52:00,FlowAlarm;OPCInstrumentWarning,0826.7,5.00,0.00,28.8,27.4,00.0,37.9,30.8,18.7,0048.09,0029.24
2021-08-11 23:53:00,FlowAlarm;OPCInstrumentWarning,0826.7,5.02,0.00,28.9,27.8,00.0,38.0,31.0,19.2,0047.63,0029.36
2021-08-11 23:54:00,FlowAlarm;OPCInstrumentWarning,0826.7,4.98,0.00,29.0,28.0,00.0,38.0,31.0,18.9,0047.02,0029.39
2021-08-11 23:55:00,FlowAlarm;OPCInstrumentWarning,0826.7,5.00,0.00,29.0,27.0,00.0,38.0,30.8,18.4,0046.78,0029.48
2021-08-11 23:56:00,FlowAlarm;OPCInstrumentWarning,0826.6,5.01,0.00,28.8,25.7,00.0,38.0,30.4,18.3,0045.67,0029.53
2021-08-11 23:57:00,FlowAlarm;OPCInstrumentWarning,0826.7,4.99,0.00,28.8,25.9,00.0,37.9,30.4,18.4,0045.79,0029.54
2021-08-11 23:58:00,FlowAlarm;OPCInstrumentWarning,0826.7,4.99,0.00,28.7,26.3,00.0,37.9,30.5,18.6,0046.12,0029.50
2021-08-11 23:59:00,FlowAlarm;OPCInstrumentWarning,0826.7,5.00,0.00,28.7,26.7,00.0,37.9,30.6,19.6,0046.03,0029.45
